Weather History for KHNZ - November, 2013

Change the Weather History Date:

Saturday, November 2, 2013

  Actual Average (KRDU) Record (KRDU)
Temperature  
Mean Temperature 62 °F 56 °F  
Max Temperature 70 °F 68 °F 84 °F (1974)
Min Temperature 54 °F 44 °F 27 °F (1976)
Degree Days  
Heating Degree Days 3 9  
Month to date heating degree days 18  
Since 1 July heating degree days 207  
Cooling Degree Days 0 0  
Month to date cooling degree days 1  
Year to date cooling degree days 1721  
Growing Degree Days 12 (Base 50)    
Moisture  
Dew Point 45 °F    
Average Humidity 61    
Maximum Humidity 92    
Minimum Humidity 29    
Precipitation  
Precipitation 0.00 in 0.10 in 1.37 in (1979)
Month to date precipitation 0.21  
Year to date precipitation 37.36  
Sea Level Pressure  
Sea Level Pressure 29.77 in    
Wind  
Wind Speed 5 mph (West)    
Max Wind Speed 13 mph    
Max Gust Speed 18 mph    
Visibility 10 miles    
Events      
T = Trace of Precipitation, MM = Missing Value Source: NWS Daily Summary

Daily Weather History Graph

Daily Weather History Graph

Search for Another Location

Airport or City:

Trip Planner

Search our weather history database for the weather conditions in past years. The results will help you decide how hot, cold, wet, or windy it might be!

Date:

Astronomy

Nov. 02, 2013 Rise Set
Actual Time 7:38 AM EDT 6:16 PM EDT
Civil Twilight 7:11 AM EDT 6:43 PM EDT
Nautical Twilight 6:41 AM EDT 7:13 PM EDT
Astronomical Twilight 6:11 AM EDT 7:43 PM EDT
Moon 6:34 AM EDT (11/2) 5:46 PM EDT (11/2)
Length of Visible Light 11h 31m
Length of Day
10h 38m
Waning Crescent, 1% of the Moon is Illuminated
Nov 2
Waning Crescent
Nov 3
New
Nov 10
First Quarter
Nov 17
Full
Nov 25
Last Quarter

Hourly Weather History & Observations

Time (EDT) Temp. Dew Point Humidity Pressure Visibility Wind Dir Wind Speed Gust Speed Precip Events Conditions
12:15 AM 62.8 °F 60.4 °F 92% 29.71 in 10.0 mi WSW 6.9 mph - N/A   Scattered Clouds
12:35 AM 62.6 °F 58.3 °F 86% 29.70 in 10.0 mi SW 8.1 mph 16.1 mph N/A   Clear
12:55 AM 61.5 °F 58.1 °F 89% 29.70 in 10.0 mi SW 6.9 mph - N/A   Clear
1:15 AM 60.4 °F 57.2 °F 89% 29.70 in 10.0 mi WSW 6.9 mph - N/A   Clear
1:35 AM 59.9 °F 56.7 °F 89% 29.70 in 10.0 mi SW 8.1 mph - N/A   Clear
1:55 AM 58.6 °F 56.1 °F 91% 29.70 in 10.0 mi SSW 8.1 mph - N/A   Clear
2:15 AM 58.1 °F 55.6 °F 91% 29.70 in 10.0 mi SW 6.9 mph - N/A   Scattered Clouds
2:35 AM 59.4 °F 57.0 °F 92% 29.70 in 10.0 mi WSW 5.8 mph - N/A   Mostly Cloudy
2:55 AM 59.2 °F 56.8 °F 92% 29.70 in 10.0 mi WSW 6.9 mph - N/A   Overcast
3:15 AM 59.4 °F 56.8 °F 91% 29.70 in 7.0 mi WSW 6.9 mph - N/A   Overcast
3:35 AM 59.0 °F 56.3 °F 91% 29.70 in 7.0 mi West 6.9 mph - N/A   Scattered Clouds
3:55 AM 58.5 °F 55.9 °F 91% 29.71 in 7.0 mi WSW 6.9 mph - N/A   Clear
4:15 AM 58.3 °F 55.8 °F 91% 29.71 in 7.0 mi WSW 6.9 mph - N/A   Clear
4:35 AM 57.9 °F 55.6 °F 92% 29.71 in 7.0 mi WSW 5.8 mph - N/A   Clear
4:55 AM 57.7 °F 55.4 °F 92% 29.71 in 7.0 mi WSW 5.8 mph - N/A   Clear
5:15 AM 57.4 °F 54.7 °F 91% 29.72 in 10.0 mi Calm Calm - N/A   Clear
5:35 AM 57.7 °F 53.8 °F 87% 29.73 in 10.0 mi Calm Calm - N/A   Clear
5:55 AM 56.8 °F 53.1 °F 87% 29.73 in 10.0 mi Calm Calm - N/A   Clear
6:15 AM 56.5 °F 52.7 °F 87% 29.73 in 10.0 mi Calm Calm - N/A   Scattered Clouds
6:35 AM 56.3 °F 52.7 °F 88% 29.73 in 10.0 mi Calm Calm - N/A   Clear
6:55 AM 55.4 °F 52.2 °F 89% 29.74 in 10.0 mi Calm Calm - N/A   Clear
7:15 AM 55.2 °F 52.3 °F 90% 29.74 in 10.0 mi WSW 3.5 mph - N/A   Clear
7:35 AM 55.0 °F 51.8 °F 89% 29.75 in 10.0 mi WSW 4.6 mph - N/A   Clear
7:55 AM 55.0 °F 51.8 °F 89% 29.75 in 10.0 mi WSW 3.5 mph - N/A   Clear
8:15 AM 54.5 °F 51.8 °F 91% 29.76 in 10.0 mi WSW 3.5 mph - N/A   Clear
8:35 AM 54.9 °F 51.8 °F 89% 29.77 in 10.0 mi Calm Calm - N/A   Scattered Clouds
8:55 AM 55.9 °F 50.9 °F 83% 29.78 in 10.0 mi West 3.5 mph - N/A   Clear
9:15 AM 56.7 °F 51.1 °F 82% 29.78 in 10.0 mi WSW 3.5 mph - N/A   Clear
9:35 AM 57.2 °F 51.1 °F 80% 29.79 in 10.0 mi West 4.6 mph - N/A   Clear
9:55 AM 58.5 °F 50.0 °F 73% 29.79 in 10.0 mi West 4.6 mph - N/A   Clear
10:15 AM 60.6 °F 50.2 °F 68% 29.79 in 10.0 mi West 4.6 mph - N/A   Clear
10:35 AM 63.0 °F 47.5 °F 57% 29.79 in 10.0 mi West 8.1 mph - N/A   Clear
10:55 AM 64.2 °F 45.9 °F 51% 29.79 in 10.0 mi WNW 6.9 mph - N/A   Clear
11:15 AM 64.4 °F 45.5 °F 50% 29.78 in 10.0 mi West 5.8 mph - N/A   Clear
11:35 AM 65.5 °F 45.1 °F 48% 29.78 in 10.0 mi WNW 6.9 mph - N/A   Clear
11:55 AM 64.9 °F 44.2 °F 47% 29.78 in 10.0 mi West 4.6 mph - N/A   Clear
1:15 PM 68.5 °F 40.6 °F 36% 29.76 in 10.0 mi WSW 6.9 mph - N/A   Clear
1:35 PM 68.7 °F 38.1 °F 33% 29.75 in 10.0 mi West 11.5 mph - N/A   Clear
1:55 PM 69.1 °F 37.9 °F 32% 29.74 in 10.0 mi WSW 12.7 mph 18.4 mph N/A   Clear
2:15 PM 69.3 °F 36.1 °F 30% 29.74 in 10.0 mi WNW 8.1 mph 18.4 mph N/A   Clear
2:35 PM 70.0 °F 37.6 °F 31% 29.74 in 10.0 mi West 10.4 mph 16.1 mph N/A   Clear
2:55 PM 67.3 °F 34.5 °F 30% 29.74 in 10.0 mi West 5.8 mph - N/A   Clear
3:15 PM 69.1 °F 35.8 °F 29% 29.74 in 10.0 mi WNW 5.8 mph - N/A   Clear
3:35 PM 69.3 °F 36.0 °F 29% 29.75 in 10.0 mi NW 4.6 mph - N/A   Clear
3:55 PM 68.2 °F 37.4 °F 32% 29.75 in 10.0 mi WNW 6.9 mph - N/A   Scattered Clouds
4:15 PM 68.2 °F 37.4 °F 32% 29.74 in 10.0 mi WNW 9.2 mph - N/A   Mostly Cloudy
4:35 PM 68.4 °F 36.1 °F 31% 29.75 in 10.0 mi WNW 6.9 mph - N/A   Scattered Clouds
4:55 PM 67.8 °F 35.8 °F 31% 29.76 in 10.0 mi West 8.1 mph - N/A   Clear
5:15 PM 65.3 °F 37.6 °F 36% 29.76 in 10.0 mi WNW 3.5 mph - N/A   Scattered Clouds
5:35 PM 65.8 °F 37.6 °F 35% 29.75 in 10.0 mi Calm Calm - N/A   Scattered Clouds
5:55 PM 64.0 °F 38.5 °F 39% 29.76 in 10.0 mi Calm Calm - N/A   Clear
6:15 PM 61.7 °F 39.9 °F 45% 29.77 in 10.0 mi Calm Calm - N/A   Scattered Clouds
6:35 PM 62.2 °F 39.6 °F 43% 29.78 in 10.0 mi Calm Calm - N/A   Overcast
6:55 PM 60.1 °F 45.0 °F 57% 29.79 in 10.0 mi Calm Calm - N/A   Overcast
7:15 PM 60.8 °F 41.5 °F 49% 29.81 in 10.0 mi Calm Calm - N/A   Overcast
7:35 PM 60.6 °F 40.8 °F 48% 29.82 in 10.0 mi Calm Calm - N/A   Overcast
7:55 PM 60.6 °F 38.5 °F 44% 29.83 in 10.0 mi Calm Calm - N/A   Overcast
8:15 PM 59.9 °F 38.7 °F 45% 29.84 in 10.0 mi West 3.5 mph - N/A   Scattered Clouds
8:35 PM 59.7 °F 38.5 °F 45% 29.85 in 10.0 mi Calm Calm - N/A   Clear
8:55 PM 59.2 °F 38.1 °F 46% 29.85 in 10.0 mi Calm Calm - N/A   Clear
9:15 PM 59.9 °F 34.0 °F 38% 29.86 in 10.0 mi NW 4.6 mph - N/A   Scattered Clouds
9:35 PM 59.7 °F 32.2 °F 35% 29.87 in 10.0 mi WNW 5.8 mph - N/A   Clear
9:55 PM 59.0 °F 31.8 °F 36% 29.88 in 10.0 mi NW 6.9 mph - N/A   Clear
10:15 PM 58.3 °F 31.5 °F 36% 29.89 in 10.0 mi WNW 4.6 mph - N/A   Clear
10:35 PM 57.7 °F 30.2 °F 35% 29.90 in 10.0 mi NW 9.2 mph - N/A   Clear
10:55 PM 56.8 °F 30.6 °F 37% 29.91 in 10.0 mi NW 5.8 mph - N/A   Clear
11:15 PM 55.8 °F 30.7 °F 39% 29.92 in 10.0 mi NW 5.8 mph - N/A   Clear
11:35 PM 55.0 °F 30.2 °F 39% 29.93 in 10.0 mi NW 5.8 mph - N/A   Clear
11:55 PM 54.1 °F 30.7 °F 41% 29.94 in 10.0 mi NW 4.6 mph - N/A   Clear